TimeEST,TemperatureF,Dew PointF,Humidity,Sea Level PressureIn,VisibilityMPH,Wind Direction,Wind SpeedMPH,Gust SpeedMPH,PrecipitationIn,Events,Conditions,WindDirDegrees,DateUTC
12:55 AM,40.5,23.4,51,30.14,10.0,SW,5.8,-,N/A,,Clear,230,2013-02-01 05:55:00
1:55 AM,41.0,23.4,50,30.14,10.0,WSW,10.4,-,N/A,,Clear,240,2013-02-01 06:55:00
2:55 AM,39.9,23.4,52,30.13,10.0,SW,6.9,-,N/A,,Clear,220,2013-02-01 07:55:00
3:55 AM,39.9,23.5,52,30.11,10.0,WSW,6.9,-,N/A,,Clear,240,2013-02-01 08:55:00
4:55 AM,41.7,23.5,49,30.09,10.0,WSW,9.2,-,N/A,,Clear,240,2013-02-01 09:55:00
5:55 AM,42.6,24.3,48,30.09,10.0,WSW,11.5,-,N/A,,Clear,250,2013-02-01 10:55:00
6:55 AM,42.4,24.4,49,30.11,10.0,WSW,10.4,-,N/A,,Scattered Clouds,240,2013-02-01 11:55:00
7:55 AM,42.3,25.2,51,30.12,10.0,WSW,10.4,-,N/A,,Scattered Clouds,240,2013-02-01 12:55:00
8:55 AM,45.9,26.8,47,30.15,10.0,West,11.5,20.7,N/A,,Scattered Clouds,260,2013-02-01 13:55:00
9:55 AM,49.8,24.3,37,30.18,10.0,West,18.4,34.5,N/A,,Scattered Clouds,280,2013-02-01 14:55:00
10:55 AM,50.7,20.8,31,30.22,10.0,WNW,18.4,27.6,N/A,,Scattered Clouds,300,2013-02-01 15:55:00
11:55 AM,50.4,21.7,33,30.25,10.0,NNW,15.0,25.3,N/A,,Scattered Clouds,340,2013-02-01 16:55:00
12:55 PM,49.5,12.4,23,30.25,10.0,NNW,16.1,-,N/A,,Partly Cloudy,340,2013-02-01 17:55:00
1:55 PM,49.5,3.7,15,30.25,10.0,North,12.7,20.7,N/A,,Partly Cloudy,350,2013-02-01 18:55:00
2:55 PM,49.1,1.0,14,30.26,10.0,NNW,10.4,19.6,N/A,,Partly Cloudy,340,2013-02-01 19:55:00
3:55 PM,49.1,5.0,17,30.26,10.0,NNW,11.5,-,N/A,,Clear,330,2013-02-01 20:55:00
4:55 PM,47.3,4.5,17,30.27,10.0,North,6.9,-,N/A,,Clear,360,2013-02-01 21:55:00
5:55 PM,43.0,5.9,22,30.29,10.0,NE,4.6,-,N/A,,Clear,40,2013-02-01 22:55:00
6:55 PM,39.7,6.8,26,30.31,10.0,North,5.8,-,N/A,,Clear,10,2013-02-01 23:55:00
7:55 PM,32.4,14.2,47,30.33,10.0,Calm,Calm,-,N/A,,Clear,0,2013-02-02 00:55:00
8:55 PM,31.3,12.9,47,30.35,10.0,North,3.5,-,N/A,,Clear,350,2013-02-02 01:55:00
9:55 PM,28.0,18.3,67,30.37,10.0,NE,3.5,-,N/A,,Clear,40,2013-02-02 02:55:00
10:55 PM,28.2,14.9,57,30.38,10.0,Calm,Calm,-,N/A,,Clear,0,2013-02-02 03:55:00
11:55 PM,26.4,15.6,64,30.37,10.0,Calm,Calm,-,N/A,,Clear,0,2013-02-02 04:55:00